| time (UTC) | temp C | wind direction | speed KPH | gust KPH | rain 1hr cm | rain 24hr cm | rain mn cm | humidity % | barometer mb |
| 20260906165530 | 14 | 309 | 6.4 | 0.0 | 0.00 | 0.00 | 0.00 | 62 | 1009.8 |
| 20260906165041 | 14 | 9 | 6.4 | 0.0 | 0.00 | 0.00 | 0.00 | 63 | 1009.7 |
| 20260906164546 | 14 | 334 | 6.4 | 0.0 | 0.00 | 0.00 | 0.00 | 63 | 1009.9 |
| 20260906164058 | 14 | 309 | 4.8 | 0.0 | 0.00 | 0.00 | 0.00 | 63 | 1010.1 |
| 20260906163515 | 13 | 360 | 6.4 | 0.0 | 0.00 | 0.00 | 0.00 | 64 | 1010.2 |
| 20260906163034 | 13 | 360 | 9.7 | 0.0 | 0.00 | 0.00 | 0.00 | 63 | 1010.4 |
| 20260906162542 | 13 | 338 | 11.3 | 0.0 | 0.00 | 0.00 | 0.00 | 63 | 1010.3 |
| 20260906162053 | 13 | 327 | 11.3 | 0.0 | 0.00 | 0.00 | 0.00 | 63 | 1010.4 |
| 20260906161601 | 13 | 355 | 9.7 | 0.0 | 0.00 | 0.00 | 0.00 | 62 | 1010.6 |
| 20260906161008 | 13 | 334 | 6.4 | 0.0 | 0.00 | 0.00 | 0.00 | 62 | 1010.6 |
| 20260906160528 | 13 | 11 | 8.0 | 0.0 | 0.00 | 0.00 | 0.00 | 61 | 1010.5 |
| 20260906160058 | 13 | 336 | 8.0 | 0.0 | 0.00 | 0.00 | 0.00 | 61 | 1010.6 |
| 20260906155554 | 13 | 29 | 6.4 | 0.0 | 0.00 | 0.00 | 0.00 | 62 | 1010.7 |
| 20260906155106 | 13 | 350 | 6.4 | 0.0 | 0.00 | 0.00 | 0.00 | 61 | 1010.8 |
| 20260906154513 | 13 | 342 | 6.4 | 0.0 | 0.00 | 0.00 | 0.00 | 61 | 1010.8 |
| 20260906154020 | 13 | 350 | 8.0 | 0.0 | 0.00 | 0.00 | 0.00 | 61 | 1010.7 |
| 20260906153532 | 13 | 344 | 4.8 | 0.0 | 0.00 | 0.00 | 0.00 | 60 | 1010.8 |
| 20260906153043 | 13 | 346 | 4.8 | 0.0 | 0.00 | 0.00 | 0.00 | 61 | 1010.9 |
| 20260906152601 | 13 | 332 | 4.8 | 0.0 | 0.00 | 0.00 | 0.00 | 62 | 1011.0 |
| 20260906152014 | 13 | 323 | 4.8 | 0.0 | 0.00 | 0.00 | 0.00 | 62 | 1010.9 |
| 20260906151524 | 13 | 27 | 3.2 | 0.0 | 0.00 | 0.00 | 0.00 | 62 | 1011.1 |
| 20260906151032 | 13 | 15 | 4.8 | 0.0 | 0.00 | 0.00 | 0.00 | 62 | 1011.3 |
| 20260906150544 | 13 | 9 | 4.8 | 0.0 | 0.00 | 0.00 | 0.00 | 62 | 1011.4 |
| 20260906150050 | 13 | 105 | 3.2 | 0.0 | 0.00 | 0.00 | 0.00 | 60 | 1011.5 |
| 20260906145557 | 13 | 88 | 3.2 | 0.0 | 0.00 | 0.00 | 0.00 | 61 | 1011.7 |
| 20260906145002 | 13 | 108 | 4.8 | 0.0 | 0.00 | 0.00 | 0.00 | 62 | 1011.7 |
| 20260906144507 | 13 | 108 | 4.8 | 0.0 | 0.00 | 0.00 | 0.00 | 62 | 1011.8 |
| 20260906144014 | 12 | 108 | 3.2 | 0.0 | 0.00 | 0.00 | 0.00 | 63 | 1011.8 |
| 20260906143520 | 12 | 108 | 3.2 | 0.0 | 0.00 | 0.00 | 0.00 | 64 | 1011.9 |
| 20260906143032 | 12 | 171 | 3.2 | 0.0 | 0.00 | 0.00 | 0.00 | 65 | 1011.8 |
| 20260906142542 | 11 | 199 | 3.2 | 0.0 | 0.00 | 0.00 | 0.00 | 66 | 1011.9 |
| 20260906142050 | 10 | 184 | 3.2 | 0.0 | 0.00 | 0.00 | 0.00 | 69 | 1011.8 |
| 20260906141549 | 10 | 184 | 3.2 | 0.0 | 0.00 | 0.00 | 0.00 | 70 | 1011.9 |
| 20260906141003 | 8 | 184 | 3.2 | 0.0 | 0.00 | 0.00 | 0.00 | 73 | 1011.9 |
| 20260906140524 | 8 | 184 | 3.2 | 0.0 | 0.00 | 0.00 | 0.00 | 74 | 1011.9 |
| 20260906140041 | 7 | 184 | 3.2 | 0.0 | 0.00 | 0.00 | 0.00 | 76 | 1011.9 |
| 20260906135546 | 7 | 184 | 3.2 | 0.0 | 0.00 | 0.00 | 0.00 | 75 | 1011.8 |
| 20260906135045 | 6 | 184 | 4.8 | 0.0 | 0.00 | 0.00 | 0.00 | 74 | 1011.8 |
| 20260906134549 | 6 | 184 | 4.8 | 0.0 | 0.00 | 0.00 | 0.00 | 71 | 1011.6 |
| 20260906134051 | 7 | 184 | 3.2 | 0.0 | 0.00 | 0.00 | 0.00 | 72 | 1011.6 |
| 20260906133601 | 7 | 184 | 3.2 | 0.0 | 0.00 | 0.00 | 0.00 | 74 | 1011.5 |
| 20260906133014 | 7 | 184 | 4.8 | 0.0 | 0.00 | 0.00 | 0.00 | 72 | 1011.6 |
| 20260906132532 | 7 | 184 | 4.8 | 0.0 | 0.00 | 0.00 | 0.00 | 73 | 1011.7 |
| 20260906132050 | 6 | 184 | 6.4 | 0.0 | 0.00 | 0.00 | 0.00 | 75 | 1011.7 |
| 20260906131605 | 6 | 184 | 6.4 | 0.0 | 0.00 | 0.00 | 0.00 | 73 | 1011.7 |
| 20260906131014 | 6 | 184 | 6.4 | 0.0 | 0.00 | 0.00 | 0.00 | 72 | 1011.4 |
| 20260906130525 | 6 | 184 | 6.4 | 0.0 | 0.00 | 0.00 | 0.00 | 72 | 1011.2 |
| 20260906130039 | 6 | 184 | 6.4 | 0.0 | 0.00 | 0.00 | 0.00 | 75 | 1011.2 |
| 20260906125559 | 5 | 184 | 4.8 | 0.0 | 0.00 | 0.00 | 0.00 | 74 | 1011.3 |
| 20260906125104 | 5 | 184 | 6.4 | 0.0 | 0.00 | 0.00 | 0.00 | 73 | 1011.3 |
| 20260906124518 | 6 | 184 | 4.8 | 0.0 | 0.00 | 0.00 | 0.00 | 71 | 1011.2 |
| 20260906124034 | 6 | 184 | 4.8 | 0.0 | 0.00 | 0.00 | 0.00 | 73 | 1011.2 |
| 20260906123549 | 5 | 184 | 4.8 | 0.0 | 0.00 | 0.00 | 0.00 | 74 | 1011.2 |
| 20260906123100 | 5 | 184 | 4.8 | 0.0 | 0.00 | 0.00 | 0.00 | 73 | 1011.1 |
| 20260906122515 | 6 | 184 | 6.4 | 0.0 | 0.00 | 0.00 | 0.00 | 72 | 1011.0 |
| 20260906122025 | 6 | 184 | 4.8 | 0.0 | 0.00 | 0.00 | 0.00 | 72 | 1011.0 |
| 20260906121534 | 6 | 184 | 4.8 | 0.0 | 0.00 | 0.00 | 0.00 | 71 | 1010.9 |
| 20260906121048 | 6 | 185 | 6.4 | 0.0 | 0.00 | 0.00 | 0.00 | 71 | 1010.9 |
| 20260906120558 | 6 | 193 | 6.4 | 0.0 | 0.00 | 0.00 | 0.00 | 70 | 1010.9 |
| 20260906120104 | 7 | 193 | 4.8 | 0.0 | 0.00 | 0.00 | 0.00 | 70 | 1010.7 |
| 20260906115526 | 7 | 199 | 1.6 | 0.0 | 0.00 | 0.00 | 0.00 | 70 | 1010.7 |
| 20260906115029 | 7 | 200 | 1.6 | 0.0 | 0.00 | 0.00 | 0.00 | 70 | 1010.6 |
| 20260906114539 | 7 | 200 | 3.2 | 0.0 | 0.00 | 0.00 | 0.00 | 69 | 1010.5 |
| 20260906114049 | 7 | 200 | 4.8 | 0.0 | 0.00 | 0.00 | 0.00 | 70 | 1010.4 |
| 20260906113601 | 7 | 200 | 4.8 | 0.0 | 0.00 | 0.00 | 0.00 | 70 | 1010.2 |
| 20260906113003 | 7 | 200 | 6.4 | 0.0 | 0.00 | 0.00 | 0.00 | 70 | 1010.0 |
| 20260906112521 | 7 | 200 | 6.4 | 0.0 | 0.00 | 0.00 | 0.00 | 70 | 1009.7 |
| 20260906112039 | 7 | 200 | 6.4 | 0.0 | 0.00 | 0.00 | 0.00 | 69 | 1009.5 |
| 20260906111545 | 6 | 200 | 6.4 | 0.0 | 0.00 | 0.00 | 0.00 | 69 | 1009.6 |
| 20260906111055 | 6 | 200 | 8.0 | 0.0 | 0.00 | 0.00 | 0.00 | 69 | 1009.5 |
| 20260906110504 | 6 | 200 | 8.0 | 0.0 | 0.00 | 0.00 | 0.00 | 69 | 1009.4 |
| 20260906110014 | 6 | 200 | 6.4 | 0.0 | 0.00 | 0.00 | 0.00 | 69 | 1009.4 |
| 20260906105537 | 7 | 183 | 8.0 | 0.0 | 0.00 | 0.00 | 0.00 | 68 | 1009.4 |
| 20260906105046 | 7 | 191 | 6.4 | 0.0 | 0.00 | 0.00 | 0.00 | 68 | 1009.3 |
| 20260906104629 | 7 | 187 | 6.4 | 0.0 | 0.00 | 0.00 | 0.00 | 67 | 1009.4 |
| 20260906104025 | 7 | 195 | 6.4 | 0.0 | 0.00 | 0.00 | 0.00 | 67 | 1009.3 |
| 20260906103548 | 7 | 204 | 4.8 | 0.0 | 0.00 | 0.00 | 0.00 | 67 | 1009.4 |
| 20260906103103 | 7 | 201 | 4.8 | 0.0 | 0.00 | 0.00 | 0.00 | 66 | 1009.3 |
| 20260906102513 | 7 | 201 | 4.8 | 0.0 | 0.00 | 0.00 | 0.00 | 66 | 1009.2 |
| 20260906102034 | 7 | 201 | 4.8 | 0.0 | 0.00 | 0.00 | 0.00 | 66 | 1009.2 |
| 20260906101556 | 7 | 201 | 4.8 | 0.0 | 0.00 | 0.00 | 0.00 | 65 | 1009.1 |
| 20260906101003 | 7 | 201 | 4.8 | 0.0 | 0.00 | 0.00 | 0.00 | 65 | 1009.1 |
| 20260906100522 | 7 | 201 | 4.8 | 0.0 | 0.00 | 0.00 | 0.00 | 65 | 1009.2 |
| 20260906100042 | 7 | 198 | 6.4 | 0.0 | 0.00 | 0.00 | 0.00 | 64 | 1009.1 |
| 20260906095549 | 7 | 200 | 6.4 | 0.0 | 0.00 | 0.00 | 0.00 | 63 | 1009.1 |
| 20260906095104 | 7 | 186 | 8.0 | 0.0 | 0.00 | 0.00 | 0.00 | 63 | 1008.9 |
| 20260906094513 | 7 | 294 | 8.0 | 0.0 | 0.00 | 0.00 | 0.00 | 63 | 1009.0 |
| 20260906094038 | 7 | 294 | 8.0 | 0.0 | 0.00 | 0.00 | 0.00 | 63 | 1008.9 |
| 20260906093554 | 7 | 294 | 8.0 | 0.0 | 0.00 | 0.00 | 0.00 | 64 | 1009.0 |
| 20260906093124 | 7 | 294 | 8.0 | 0.0 | 0.00 | 0.00 | 0.00 | 63 | 1009.0 |
| 20260906092517 | 7 | 294 | 9.7 | 0.0 | 0.00 | 0.00 | 0.00 | 63 | 1008.9 |
| 20260906092031 | 7 | 294 | 8.0 | 0.0 | 0.00 | 0.00 | 0.00 | 62 | 1008.9 |
| 20260906091537 | 7 | 294 | 8.0 | 0.0 | 0.00 | 0.00 | 0.00 | 62 | 1008.9 |
| 20260906091048 | 7 | 294 | 6.4 | 0.0 | 0.00 | 0.00 | 0.00 | 61 | 1008.9 |
| 20260906090559 | 7 | 294 | 6.4 | 0.0 | 0.00 | 0.00 | 0.00 | 61 | 1008.9 |
| 20260906090103 | 7 | 294 | 6.4 | 0.0 | 0.00 | 0.00 | 0.00 | 61 | 1009.0 |
| 20260906085520 | 8 | 294 | 6.4 | 0.0 | 0.00 | 0.00 | 0.00 | 60 | 1009.1 |
| 20260906085035 | 8 | 294 | 4.8 | 0.0 | 0.00 | 0.00 | 0.00 | 59 | 1009.1 |
| 20260906084540 | 8 | 302 | 3.2 | 0.0 | 0.00 | 0.00 | 0.00 | 57 | 1009.0 |
| 20260906084044 | 9 | 302 | 1.6 | 0.0 | 0.00 | 0.00 | 0.00 | 55 | 1009.2 |
| 20260906083547 | 9 | 302 | 0.0 | 0.0 | 0.00 | 0.00 | 0.00 | 56 | 1008.8 |
| 20260906083055 | 10 | 302 | 0.0 | 0.0 | 0.00 | 0.00 | 0.00 | 55 | 1008.9 |
| 20260906082605 | 10 | 302 | 3.2 | 0.0 | 0.00 | 0.00 | 0.00 | 55 | 1008.9 |
| 20260906082104 | 10 | 302 | 4.8 | 0.0 | 0.00 | 0.00 | 0.00 | 55 | 1008.8 |
| 20260906081521 | 10 | 302 | 6.4 | 0.0 | 0.00 | 0.00 | 0.00 | 55 | 1008.8 |
| 20260906081038 | 10 | 302 | 6.4 | 0.0 | 0.00 | 0.00 | 0.00 | 53 | 1008.9 |
| 20260906080547 | 11 | 302 | 6.4 | 0.0 | 0.00 | 0.00 | 0.00 | 52 | 1009.0 |
| 20260906080055 | 11 | 302 | 6.4 | 0.0 | 0.00 | 0.00 | 0.00 | 52 | 1009.0 |
| 20260906075504 | 10 | 302 | 6.4 | 0.0 | 0.00 | 0.00 | 0.00 | 54 | 1009.2 |
| 20260906075021 | 10 | 302 | 8.0 | 0.0 | 0.00 | 0.00 | 0.00 | 55 | 1009.2 |
| 20260906074535 | 10 | 290 | 9.7 | 0.0 | 0.00 | 0.00 | 0.00 | 56 | 1009.2 |
| 20260906074040 | 10 | 269 | 11.3 | 0.0 | 0.00 | 0.00 | 0.00 | 57 | 1009.3 |
| 20260906073541 | 10 | 250 | 12.9 | 0.0 | 0.00 | 0.00 | 0.00 | 57 | 1009.3 |
| 20260906073048 | 10 | 267 | 12.9 | 0.0 | 0.00 | 0.00 | 0.00 | 58 | 1009.3 |
| 20260906072555 | 9 | 351 | 9.7 | 0.0 | 0.00 | 0.00 | 0.00 | 58 | 1009.4 |
| 20260906072057 | 10 | 35 | 8.0 | 0.0 | 0.00 | 0.00 | 0.00 | 56 | 1009.4 |
| 20260906071503 | 10 | 202 | 9.7 | 0.0 | 0.00 | 0.00 | 0.00 | 55 | 1008.9 |
| 20260906071008 | 10 | 200 | 11.3 | 0.0 | 0.00 | 0.00 | 0.00 | 55 | 1008.9 |
| 20260906070518 | 10 | 199 | 14.5 | 0.0 | 0.00 | 0.00 | 0.00 | 55 | 1009.0 |
| 20260906070026 | 10 | 211 | 14.5 | 0.0 | 0.00 | 0.00 | 0.00 | 54 | 1009.0 |
| 20260906065534 | 11 | 216 | 14.5 | 0.0 | 0.00 | 0.00 | 0.00 | 54 | 1009.0 |
| 20260906065039 | 11 | 221 | 11.3 | 0.0 | 0.00 | 0.00 | 0.00 | 53 | 1009.0 |
| 20260906064546 | 10 | 219 | 9.7 | 0.0 | 0.00 | 0.00 | 0.00 | 54 | 1008.9 |
| 20260906064053 | 11 | 203 | 12.9 | 0.0 | 0.00 | 0.00 | 0.00 | 54 | 1008.8 |
| 20260906063549 | 10 | 211 | 12.9 | 0.0 | 0.00 | 0.00 | 0.00 | 54 | 1008.9 |
| 20260906063049 | 10 | 221 | 11.3 | 0.0 | 0.00 | 0.00 | 0.00 | 54 | 1009.1 |
| 20260906062549 | 11 | 234 | 9.7 | 0.0 | 0.00 | 0.00 | 0.00 | 54 | 1009.2 |
| 20260906062053 | 11 | 227 | 9.7 | 0.0 | 0.00 | 0.00 | 0.00 | 53 | 1009.2 |
| 20260906061558 | 11 | 226 | 11.3 | 0.0 | 0.00 | 0.00 | 0.00 | 53 | 1009.2 |
| 20260906061057 | 11 | 205 | 9.7 | 0.0 | 0.00 | 0.00 | 0.00 | 50 | 1009.3 |
| 20260906060506 | 11 | 202 | 4.8 | 0.0 | 0.00 | 0.00 | 0.00 | 52 | 1009.2 |
| 20260906060020 | 10 | 179 | 3.2 | 0.0 | 0.00 | 0.00 | 0.00 | 52 | 1009.5 |
| 20260906055533 | 10 | 188 | 4.8 | 0.0 | 0.00 | 0.00 | 0.00 | 53 | 1009.3 |
| 20260906055042 | 10 | 188 | 6.4 | 0.0 | 0.00 | 0.00 | 0.00 | 52 | 1009.3 |
| 20260906054549 | 10 | 193 | 6.4 | 0.0 | 0.00 | 0.00 | 0.00 | 52 | 1009.3 |
| 20260906054053 | 10 | 192 | 8.0 | 0.0 | 0.00 | 0.00 | 0.00 | 52 | 1009.3 |
| 20260906053506 | 10 | 192 | 8.0 | 0.0 | 0.00 | 0.00 | 0.00 | 51 | 1009.3 |
| 20260906053016 | 11 | 183 | 9.7 | 0.0 | 0.00 | 0.00 | 0.00 | 51 | 1009.3 |
| 20260906052525 | 11 | 169 | 11.3 | 0.0 | 0.00 | 0.00 | 0.00 | 51 | 1009.4 |
| 20260906052029 | 11 | 170 | 9.7 | 0.0 | 0.00 | 0.00 | 0.00 | 53 | 1009.5 |
| 20260906051536 | 11 | 159 | 9.7 | 0.0 | 0.00 | 0.00 | 0.00 | 53 | 1009.5 |
| 20260906051050 | 11 | 181 | 11.3 | 0.0 | 0.00 | 0.00 | 0.00 | 53 | 1009.5 |
| 20260906050556 | 11 | 185 | 11.3 | 0.0 | 0.00 | 0.00 | 0.00 | 53 | 1009.4 |
| 20260906050124 | 11 | 204 | 11.3 | 0.0 | 0.00 | 0.00 | 0.00 | 52 | 1009.4 |
| 20260906045518 | 12 | 196 | 9.7 | 0.0 | 0.00 | 0.00 | 0.00 | 51 | 1009.6 |
| 20260906045032 | 12 | 185 | 8.0 | 0.0 | 0.00 | 0.00 | 0.00 | 51 | 1009.7 |
| 20260906044538 | 12 | 189 | 6.4 | 0.0 | 0.00 | 0.00 | 0.00 | 49 | 1009.7 |
| 20260906044053 | 12 | 178 | 6.4 | 0.0 | 0.00 | 0.00 | 0.00 | 48 | 1009.7 |
| 20260906043557 | 12 | 173 | 8.0 | 0.0 | 0.00 | 0.00 | 0.00 | 49 | 1009.8 |
| 20260906043009 | 12 | 169 | 8.0 | 0.0 | 0.00 | 0.00 | 0.00 | 48 | 1009.8 |
| 20260906042528 | 13 | 189 | 8.0 | 0.0 | 0.00 | 0.00 | 0.00 | 45 | 1009.8 |
| 20260906042039 | 14 | 164 | 9.7 | 0.0 | 0.00 | 0.00 | 0.00 | 43 | 1009.7 |
| 20260906041543 | 15 | 216 | 12.9 | 0.0 | 0.00 | 0.00 | 0.00 | 42 | 1009.7 |
| 20260906041055 | 15 | 211 | 12.9 | 0.0 | 0.00 | 0.00 | 0.00 | 42 | 1009.6 |
| 20260906040559 | 15 | 202 | 14.5 | 0.0 | 0.00 | 0.00 | 0.00 | 42 | 1009.7 |
| 20260906040003 | 15 | 213 | 14.5 | 0.0 | 0.00 | 0.00 | 0.00 | 42 | 1009.7 |
| 20260906035606 | 15 | 212 | 12.9 | 0.0 | 0.00 | 0.00 | 0.00 | 42 | 1009.7 |
| 20260906035102 | 15 | 223 | 11.3 | 0.0 | 0.00 | 0.00 | 0.00 | 42 | 1009.7 |
| 20260906034556 | 15 | 215 | 11.3 | 0.0 | 0.00 | 0.00 | 0.00 | 42 | 1009.7 |
| 20260906034007 | 15 | 217 | 11.3 | 0.0 | 0.00 | 0.00 | 0.00 | 41 | 1009.7 |
| 20260906033514 | 15 | 213 | 9.7 | 0.0 | 0.00 | 0.00 | 0.00 | 40 | 1009.4 |
| 20260906033053 | 15 | 218 | 9.7 | 0.0 | 0.00 | 0.00 | 0.00 | 40 | 1009.3 |
| 20260906032533 | 15 | 201 | 9.7 | 0.0 | 0.00 | 0.00 | 0.00 | 40 | 1009.3 |
| 20260906032025 | 15 | 200 | 9.7 | 0.0 | 0.00 | 0.00 | 0.00 | 40 | 1009.2 |
| 20260906031515 | 15 | 208 | 9.7 | 0.0 | 0.00 | 0.00 | 0.00 | 40 | 1009.2 |
| 20260906031013 | 15 | 210 | 9.7 | 0.0 | 0.00 | 0.00 | 0.00 | 41 | 1009.1 |
| 20260906030513 | 14 | 213 | 9.7 | 0.0 | 0.00 | 0.00 | 0.00 | 40 | 1009.0 |
| 20260906030013 | 15 | 212 | 8.0 | 0.0 | 0.00 | 0.00 | 0.00 | 39 | 1008.9 |
| 20260906025508 | 15 | 208 | 8.0 | 0.0 | 0.00 | 0.00 | 0.00 | 39 | 1008.8 |
| 20260906025002 | 15 | 198 | 6.4 | 0.0 | 0.00 | 0.00 | 0.00 | 38 | 1008.7 |
| 20260906024505 | 15 | 186 | 6.4 | 0.0 | 0.00 | 0.00 | 0.00 | 38 | 1008.7 |
| 20260906024109 | 16 | 182 | 8.0 | 0.0 | 0.00 | 0.00 | 0.00 | 38 | 1008.8 |
| 20260906023607 | 16 | 176 | 8.0 | 0.0 | 0.00 | 0.00 | 0.00 | 37 | 1008.6 |
| 20260906023102 | 16 | 179 | 9.7 | 0.0 | 0.00 | 0.00 | 0.00 | 36 | 1008.6 |
| 20260906022607 | 16 | 171 | 8.0 | 0.0 | 0.00 | 0.00 | 0.00 | 36 | 1008.4 |
| 20260906022004 | 16 | 184 | 8.0 | 0.0 | 0.00 | 0.00 | 0.00 | 35 | 1008.2 |
| 20260906021514 | 17 | 164 | 8.0 | 0.0 | 0.00 | 0.00 | 0.00 | 34 | 1008.2 |
| 20260906021105 | 17 | 157 | 6.4 | 0.0 | 0.00 | 0.00 | 0.00 | 33 | 1008.2 |
| 20260906020605 | 17 | 160 | 6.4 | 0.0 | 0.00 | 0.00 | 0.00 | 33 | 1008.2 |
| 20260906020108 | 18 | 196 | 6.4 | 0.0 | 0.00 | 0.00 | 0.00 | 31 | 1008.1 |
| 20260906015603 | 19 | 196 | 8.0 | 0.0 | 0.00 | 0.00 | 0.00 | 30 | 1007.9 |
| 20260906015058 | 20 | 193 | 8.0 | 0.0 | 0.00 | 0.00 | 0.00 | 30 | 1008.0 |
| 20260906014609 | 20 | 195 | 8.0 | 0.0 | 0.00 | 0.00 | 0.00 | 29 | 1007.9 |
| 20260906014050 | 21 | 190 | 8.0 | 0.0 | 0.00 | 0.00 | 0.00 | 28 | 1007.9 |
| 20260906013539 | 21 | 181 | 8.0 | 0.0 | 0.00 | 0.00 | 0.00 | 27 | 1007.7 |
| 20260906013048 | 22 | 203 | 8.0 | 0.0 | 0.00 | 0.00 | 0.00 | 27 | 1007.9 |
| 20260906012545 | 22 | 207 | 11.3 | 0.0 | 0.00 | 0.00 | 0.00 | 26 | 1007.8 |
| 20260906012046 | 22 | 205 | 12.9 | 0.0 | 0.00 | 0.00 | 0.00 | 26 | 1007.7 |
| 20260906011558 | 23 | 209 | 12.9 | 0.0 | 0.00 | 0.00 | 0.00 | 25 | 1007.7 |
| 20260906011058 | 23 | 194 | 14.5 | 0.0 | 0.00 | 0.00 | 0.00 | 25 | 1007.6 |
| 20260906010501 | 23 | 180 | 16.1 | 0.0 | 0.00 | 0.00 | 0.00 | 25 | 1007.6 |
| 20260906005509 | 23 | 196 | 14.5 | 0.0 | 0.00 | 0.00 | 0.00 | 24 | 1007.7 |
| 20260906005052 | 23 | 201 | 14.5 | 0.0 | 0.00 | 0.00 | 0.00 | 24 | 1007.6 |
| 20260906004551 | 23 | 200 | 16.1 | 0.0 | 0.00 | 0.00 | 0.00 | 24 | 1007.5 |
| 20260906004043 | 23 | 180 | 19.3 | 0.0 | 0.00 | 0.00 | 0.00 | 24 | 1007.7 |
| 20260906003548 | 23 | 198 | 19.3 | 0.0 | 0.00 | 0.00 | 0.00 | 24 | 1007.6 |
| 20260906003101 | 23 | 192 | 19.3 | 0.0 | 0.00 | 0.00 | 0.00 | 24 | 1007.6 |
| 20260906002555 | 23 | 216 | 19.3 | 0.0 | 0.00 | 0.00 | 0.00 | 24 | 1007.6 |
| 20260906002101 | 23 | 200 | 19.3 | 0.0 | 0.00 | 0.00 | 0.00 | 23 | 1007.6 |
| 20260906001559 | 24 | 196 | 20.9 | 0.0 | 0.00 | 0.00 | 0.00 | 23 | 1007.5 |
| 20260906001012 | 24 | 209 | 24.1 | 0.0 | 0.00 | 0.00 | 0.00 | 23 | 1007.6 |
| 20260906000526 | 24 | 221 | 24.1 | 0.0 | 0.00 | 0.00 | 0.00 | 22 | 1007.5 |
| 20260906000042 | 24 | 211 | 24.1 | 0.0 | 0.00 | 0.00 | 0.00 | 22 | 1007.5 |
| 20260905235549 | 24 | 221 | 22.5 | 0.0 | 0.00 | 0.00 | 0.00 | 22 | 1007.5 |
| 20260905235057 | 24 | 169 | 24.1 | 0.0 | 0.00 | 0.00 | 0.00 | 22 | 1007.4 |
| 20260905234503 | 25 | 197 | 24.1 | 0.0 | 0.00 | 0.00 | 0.00 | 21 | 1007.5 |
| 20260905234010 | 24 | 189 | 24.1 | 0.0 | 0.00 | 0.00 | 0.00 | 22 | 1007.5 |
| 20260905233519 | 24 | 197 | 22.5 | 0.0 | 0.00 | 0.00 | 0.00 | 21 | 1007.6 |
| 20260905233040 | 24 | 196 | 17.7 | 0.0 | 0.00 | 0.00 | 0.00 | 21 | 1007.5 |
| 20260905232549 | 25 | 173 | 22.5 | 0.0 | 0.00 | 0.00 | 0.00 | 21 | 1007.5 |
| 20260905232056 | 25 | 196 | 24.1 | 0.0 | 0.00 | 0.00 | 0.00 | 20 | 1007.4 |
| 20260905231504 | 25 | 217 | 20.9 | 0.0 | 0.00 | 0.00 | 0.00 | 20 | 1007.4 |
| 20260905231017 | 25 | 208 | 22.5 | 0.0 | 0.00 | 0.00 | 0.00 | 21 | 1007.5 |
| 20260905230533 | 25 | 197 | 27.4 | 0.0 | 0.00 | 0.00 | 0.00 | 20 | 1007.5 |
| 20260905230059 | 25 | 207 | 27.4 | 0.0 | 0.00 | 0.00 | 0.00 | 20 | 1007.6 |
| 20260905225550 | 25 | 217 | 29.0 | 0.0 | 0.00 | 0.00 | 0.00 | 20 | 1007.6 |
| 20260905225011 | 25 | 209 | 29.0 | 0.0 | 0.00 | 0.00 | 0.00 | 19 | 1007.8 |
| 20260905224524 | 25 | 226 | 29.0 | 0.0 | 0.00 | 0.00 | 0.00 | 18 | 1007.6 |
| 20260905224040 | 25 | 222 | 30.6 | 0.0 | 0.00 | 0.00 | 0.00 | 18 | 1007.9 |
| 20260905223554 | 25 | 195 | 29.0 | 0.0 | 0.00 | 0.00 | 0.00 | 20 | 1008.0 |
| 20260905223005 | 25 | 180 | 29.0 | 0.0 | 0.00 | 0.00 | 0.00 | 20 | 1007.9 |
| 20260905222517 | 25 | 219 | 29.0 | 0.0 | 0.00 | 0.00 | 0.00 | 18 | 1007.9 |
| 20260905222041 | 25 | 200 | 25.7 | 0.0 | 0.00 | 0.00 | 0.00 | 18 | 1007.9 |
| 20260905221600 | 25 | 241 | 22.5 | 0.0 | 0.00 | 0.00 | 0.00 | 21 | 1007.9 |
| 20260905221011 | 24 | 184 | 27.4 | 0.0 | 0.00 | 0.00 | 0.00 | 22 | 1008.3 |
| 20260905220533 | 25 | 209 | 27.4 | 0.0 | 0.00 | 0.00 | 0.00 | 22 | 1008.2 |
| 20260905220046 | 25 | 210 | 29.0 | 0.0 | 0.00 | 0.00 | 0.00 | 21 | 1008.1 |
| 20260905215603 | 24 | 207 | 33.8 | 0.0 | 0.00 | 0.00 | 0.00 | 21 | 1008.3 |
| 20260905215007 | 25 | 227 | 30.6 | 0.0 | 0.00 | 0.00 | 0.00 | 21 | 1008.3 |
| 20260905214513 | 25 | 197 | 29.0 | 0.0 | 0.00 | 0.00 | 0.00 | 22 | 1008.5 |
| 20260905214033 | 25 | 207 | 24.1 | 0.0 | 0.00 | 0.00 | 0.00 | 22 | 1008.4 |
| 20260905213549 | 25 | 211 | 24.1 | 0.0 | 0.00 | 0.00 | 0.00 | 22 | 1008.5 |
| 20260905213013 | 25 | 173 | 25.7 | 0.0 | 0.00 | 0.00 | 0.00 | 22 | 1008.5 |
| 20260905212523 | 25 | 205 | 27.4 | 0.0 | 0.00 | 0.00 | 0.00 | 22 | 1008.5 |
| 20260905212029 | 25 | 169 | 24.1 | 0.0 | 0.00 | 0.00 | 0.00 | 22 | 1008.4 |
| 20260905211546 | 25 | 169 | 24.1 | 0.0 | 0.00 | 0.00 | 0.00 | 24 | 1008.5 |
| 20260905211054 | 25 | 163 | 25.7 | 0.0 | 0.00 | 0.00 | 0.00 | 23 | 1008.4 |
| 20260905210513 | 25 | 142 | 25.7 | 0.0 | 0.00 | 0.00 | 0.00 | 23 | 1008.3 |
| 20260905210030 | 25 | 224 | 19.3 | 0.0 | 0.00 | 0.00 | 0.00 | 22 | 1008.3 |
| 20260905205541 | 25 | 187 | 19.3 | 0.0 | 0.00 | 0.00 | 0.00 | 24 | 1008.4 |
| 20260905205051 | 23 | 212 | 19.3 | 0.0 | 0.00 | 0.00 | 0.00 | 26 | 1008.4 |
| 20260905204605 | 23 | 167 | 22.5 | 0.0 | 0.00 | 0.00 | 0.00 | 25 | 1008.5 |
| 20260905204019 | 23 | 151 | 24.1 | 0.0 | 0.00 | 0.00 | 0.00 | 24 | 1008.6 |
| 20260905203534 | 23 | 202 | 24.1 | 0.0 | 0.00 | 0.00 | 0.00 | 25 | 1008.5 |
| 20260905203056 | 23 | 217 | 22.5 | 0.0 | 0.00 | 0.00 | 0.00 | 24 | 1008.4 |
| 20260905202559 | 24 | 171 | 20.9 | 0.0 | 0.00 | 0.00 | 0.00 | 25 | 1008.5 |
| 20260905202005 | 23 | 208 | 14.5 | 0.0 | 0.00 | 0.00 | 0.00 | 33 | 1008.6 |
| 20260905201522 | 22 | 240 | 9.7 | 0.0 | 0.00 | 0.00 | 0.00 | 31 | 1008.6 |
| 20260905201041 | 21 | 202 | 9.7 | 0.0 | 0.00 | 0.00 | 0.00 | 38 | 1008.9 |
| 20260905200548 | 21 | 323 | 12.9 | 0.0 | 0.00 | 0.00 | 0.00 | 39 | 1008.8 |
| 20260905200013 | 20 | 309 | 16.1 | 0.0 | 0.00 | 0.00 | 0.00 | 39 | 1008.8 |
| 20260905195518 | 20 | 320 | 14.5 | 0.0 | 0.00 | 0.00 | 0.00 | 39 | 1008.8 |
| 20260905195032 | 21 | 360 | 11.3 | 0.0 | 0.00 | 0.00 | 0.00 | 40 | 1008.9 |
| 20260905194540 | 20 | 17 | 9.7 | 0.0 | 0.00 | 0.00 | 0.00 | 41 | 1009.0 |
| 20260905194051 | 20 | 348 | 9.7 | 0.0 | 0.00 | 0.00 | 0.00 | 41 | 1009.0 |
| 20260905193506 | 20 | 315 | 11.3 | 0.0 | 0.00 | 0.00 | 0.00 | 42 | 1009.1 |
| 20260905193026 | 20 | 350 | 9.7 | 0.0 | 0.00 | 0.00 | 0.00 | 42 | 1009.0 |
| 20260905192539 | 19 | 5 | 12.9 | 0.0 | 0.00 | 0.00 | 0.00 | 43 | 1009.0 |
| 20260905192053 | 19 | 317 | 12.9 | 0.0 | 0.00 | 0.00 | 0.00 | 43 | 1009.2 |
| 20260905191555 | 19 | 5 | 12.9 | 0.0 | 0.00 | 0.00 | 0.00 | 45 | 1009.3 |
| 20260905191034 | 18 | 355 | 11.3 | 0.0 | 0.00 | 0.00 | 0.00 | 45 | 1009.2 |
| 20260905190528 | 18 | 355 | 9.7 | 0.0 | 0.00 | 0.00 | 0.00 | 45 | 1009.2 |
| 20260905190006 | 18 | 319 | 9.7 | 0.0 | 0.00 | 0.00 | 0.00 | 46 | 1009.4 |
| 20260905185501 | 18 | 336 | 11.3 | 0.0 | 0.00 | 0.00 | 0.00 | 47 | 1009.4 |
| 20260905185004 | 18 | 360 | 11.3 | 0.0 | 0.00 | 0.00 | 0.00 | 47 | 1009.4 |
| 20260905184517 | 17 | 349 | 9.7 | 0.0 | 0.00 | 0.00 | 0.00 | 48 | 1009.5 |
| 20260905184003 | 17 | 346 | 9.7 | 0.0 | 0.00 | 0.00 | 0.00 | 48 | 1009.7 |
| 20260905183505 | 17 | 11 | 9.7 | 0.0 | 0.00 | 0.00 | 0.00 | 48 | 1009.7 |
| 20260905183023 | 17 | 328 | 9.7 | 0.0 | 0.00 | 0.00 | 0.00 | 50 | 1009.9 |
| 20260905182532 | 17 | 330 | 9.7 | 0.0 | 0.00 | 0.00 | 0.00 | 50 | 1009.9 |
| 20260905182035 | 17 | 5 | 8.0 | 0.0 | 0.00 | 0.00 | 0.00 | 51 | 1010.0 |
| 20260905181536 | 16 | 12 | 6.4 | 0.0 | 0.00 | 0.00 | 0.00 | 52 | 1010.0 |
| 20260905181057 | 16 | 338 | 6.4 | 0.0 | 0.00 | 0.00 | 0.00 | 51 | 1010.1 |
| 20260905180554 | 16 | 22 | 6.4 | 0.0 | 0.00 | 0.00 | 0.00 | 52 | 1010.1 |
| 20260905180105 | 16 | 330 | 8.0 | 0.0 | 0.00 | 0.00 | 0.00 | 52 | 1010.3 |
| 20260905175518 | 16 | 355 | 6.4 | 0.0 | 0.00 | 0.00 | 0.00 | 53 | 1010.4 |
| 20260905175028 | 16 | 325 | 8.0 | 0.0 | 0.00 | 0.00 | 0.00 | 54 | 1010.4 |
| 20260905174535 | 15 | 325 | 9.7 | 0.0 | 0.00 | 0.00 | 0.00 | 54 | 1010.5 |
| 20260905174043 | 15 | 316 | 6.4 | 0.0 | 0.00 | 0.00 | 0.00 | 54 | 1010.5 |
| 20260905173546 | 15 | 311 | 6.4 | 0.0 | 0.00 | 0.00 | 0.00 | 55 | 1010.5 |
| 20260905173055 | 15 | 13 | 8.0 | 0.0 | 0.00 | 0.00 | 0.00 | 56 | 1010.6 |
| 20260905172505 | 15 | 331 | 8.0 | 0.0 | 0.00 | 0.00 | 0.00 | 55 | 1010.5 |
| 20260905172011 | 15 | 330 | 6.4 | 0.0 | 0.00 | 0.00 | 0.00 | 57 | 1010.6 |
| 20260905171529 | 15 | 324 | 8.0 | 0.0 | 0.00 | 0.00 | 0.00 | 57 | 1010.6 |
| 20260905171036 | 15 | 325 | 6.4 | 0.0 | 0.00 | 0.00 | 0.00 | 58 | 1010.6 |
| 20260905170539 | 14 | 360 | 8.0 | 0.0 | 0.00 | 0.00 | 0.00 | 58 | 1010.6 |
| 20260905170057 | 14 | 319 | 6.4 | 0.0 | 0.00 | 0.00 | 0.00 | 59 | 1010.6 |